Regional Weather Roundup
Issued by NWS

Home | Current Version | Previous Version | Text Only | Print | Product List | Glossary On
Versions: 1 2 3 4 5 6 7 8 9 10 11 12 13 14 15 16 17 18 19 20 21 22 23 24 25 26 27 28 29 30 31 32 33 34 35 36 37 38 39 40 41 42 43 44 45 46 47 48 49 50
000
ASUS43 KMPX 071510
RWRMN
WEATHER ROUNDUP FOR MINNESOTA
NATIONAL WEATHER SERVICE TWIN CITIES/CHANHASSEN MN
1000 AM CDT TUE JUL 07 2015


NOTE: "FAIR" INDICATES FEW OR NO CLOUDS BELOW 12,000 FEET WITH NO
SIGNIFICANT WEATHER AND/OR OBSTRUCTIONS TO VISIBILITY. N/A MEANS
CURRENT SKY AND/OR WEATHER CONDITIONS ARE NOT AVAILABLE.

MNZ060>063-068>070-071600-
   Twin Cities Metro

CITY           SKY/WX    TMP DP  RH WIND       PRES   REMARKS
TWIN CITIES    MOSUNNY   62  44  51 N9        30.17R
ST PAUL        SUNNY     62  46  55 N9        30.17R
CRYSTAL        SUNNY     64  44  48 N10       30.17R
BLAINE         MOSUNNY   63  45  51 N5        30.17S
LAKEVILLE      SUNNY     61  45  55 NE14G20   30.16S
EDEN PRAIRIE   SUNNY     62  43  49 NE12      30.16S
SOUTH ST PAUL  SUNNY     62  44  52 N9        30.16S
LAKE ELMO      FAIR      59  45  58 N10       30.17S
$$
MNZ001>005-007-008-013>017-022>024-027-028-071600-
   Northwest Minnesota

CITY           SKY/WX    TMP DP  RH WIND       PRES   REMARKS
BEMIDJI        SUNNY     61  46  57 N7        30.19R
HALLOCK        SUNNY     64  52  63 SW9       30.17S
ROSEAU         SUNNY     64  52  63 W6        30.17S
WARROAD        SUNNY     61  52  72 W6        30.18R
THIEF RVR FALL SUNNY     61  46  59 W7        30.20S
CROOKSTON      SUNNY     61  48  63 W6        30.20F
FOSSTON        SUNNY     61  46  59 CALM      30.20S
DETROIT LAKES  SUNNY     61  43  51 N8        30.22S
MOORHEAD       SUNNY     61  50  67 CALM      30.22S
PARK RAPIDS    SUNNY     63  40  42 N8        30.19S
MAHNOMEN       FAIR      60  47  62 CALM      30.21S
$$
MNZ006-009>011-018-025>026-071600-
   North Central Minnesota

CITY           SKY/WX    TMP DP  RH WIND       PRES   REMARKS
BAUDETTE       SUNNY     63  48  58 NW8       30.16S
FLAG ISLAND    SUNNY     61  46  59 W6        30.14F
INTL FALLS     SUNNY     64  45  49 NW6       30.15S
WASKISH        SUNNY     64  48  55 CALM      30.17F
BIG FORK       SUNNY     63  45  51 W3        30.17F
LONGVILLE      SUNNY     63  45  51 CALM      30.18S
GRAND RAPIDS   SUNNY     61  45  55 NW5       30.17F
CRANE LAKE     SUNNY     61  48  63 NW3       30.16S
COOK           SUNNY     61  46  59 NW5       30.16F
WALKER         FAIR      60  46  58 NW5       30.18S
$$
MNZ012-019>021-037-071600-
   Northeast Minnesota

CITY           SKY/WX    TMP DP  RH WIND       PRES   REMARKS
DULUTH         MOSUNNY   62  45  53 N9        30.15S
ELY            MOSUNNY   61  43  51 NW3       30.14F
HIBBING        SUNNY     63  44  50 NW8       30.16S
DULUTH HARBOR    N/A     64  50  59 NE10      30.16R
TWO HARBORS    SUNNY     64  50  59 NE7       30.13S
SILVER BAY     MOSUNNY   64  45  48 NW6       30.12S
GRAND MARAIS     N/A     65  45  48 VRB6      30.10S
G MARAIS ARPRT SUNNY     57  39  51 NW9G18    30.12S
$$
MNZ029>031-032-039>041-046>048-054>057-064-071600-
   West Central Minnesota

CITY           SKY/WX    TMP DP  RH WIND       PRES   REMARKS
FERGUS FALLS   SUNNY     63  46  55 N5        30.21F
WHEATON        SUNNY     61  48  63 NE5       30.23S
MORRIS         SUNNY     63  50  63 N7        30.20F
ALEXANDRIA     SUNNY     62  44  51 N7        30.22S
ELBOW LAKE     FAIR      61  48  62 N8        30.21S
WADENA         SUNNY     61  45  55 N5        30.20S
GLENWOOD       SUNNY     63  46  55 NE8       30.21S
APPLETON       SUNNY     64  46  52 E8        30.21R
BENSON         SUNNY     64  46  52 NE6       30.21S
ORTONVILLE     SUNNY     63  45  51 NE5       30.22R
MADISON        SUNNY     63  46  55 NE7       30.21S
WILLMAR        FAIR      63  48  59 NE8       30.22R
$$
MNZ033>034-036-042>043-049>051-058-059-071600-
   Central Minnesota

CITY           SKY/WX    TMP DP  RH WIND       PRES   REMARKS
ST CLOUD       SUNNY     62  45  53 N5        30.19R
SAUK CENTRE    FAIR      60  47  62 N5        30.21S
PAYNESVILLE    SUNNY     59  44  58 NW7       30.21S
AITKIN         MOSUNNY   63  48  59 NE3       30.17R
PINE RIVER     SUNNY     61  46  59 NW5       30.21S
BRAINERD       SUNNY     62  48  60 N8        30.19R
STAPLES        SUNNY     61  43  51 NW5       30.20S
LONG PRAIRIE   FAIR      59  45  58 N7        30.21S
LITTLE FALLS   SUNNY     61  45  55 N6        30.19S
LITCHFIELD     SUNNY     63  46  55 NE8       30.21R
BUFFALO        SUNNY     61  42  49 NE7       30.20R
MAPLE LAKE     SUNNY     62  47  58 N7        30.20S
$$
MNZ037-044-045-052-053-071600-
   East Central Minnesota

CITY           SKY/WX    TMP DP  RH WIND       PRES   REMARKS
PRINCETON      SUNNY     63  46  55 N8        30.19R
MORA           SUNNY     61  43  51 CALM      30.19S
CAMBRIDGE      SUNNY     63  46  55 NE6       30.16S
MOOSE LAKE     SUNNY     61  43  51 CALM      30.15S
HINCKLEY       FAIR      61  46  59 N7        30.17R
CLOQUET        SUNNY     61  45  55 N7        30.16S
MCGREGOR       SUNNY     63  45  51 N8        30.18R
$$
MNZ071>073-080-081-089-090-097-098-071600-
   Southwest Minnesota

CITY           SKY/WX    TMP DP  RH WIND       PRES   REMARKS
MONTEVIDEO     SUNNY     64  50  59 E9          N/A
GRANITE FALLS  SUNNY     61  48  61 NE8       30.22S
CANBY          SUNNY     60  49  66 NE9       30.23S
MARSHALL       MOSUNNY   61  45  55 NE12        N/A
REDWOOD FALLS  SUNNY     62  46  55 NE10      30.20S
OLIVIA         SUNNY     59  43  55 N13       30.20R
PIPESTONE      SUNNY     57  46  67 E8        30.21S
WINDOM         SUNNY     61  46  59 N10G18    30.20S
WORTHINGTON    MOSUNNY   57  46  67 NE14      30.20S
JACKSON        SUNNY     59  46  63 N16       30.19S
TRACY          SUNNY     61  49  66 NE8       30.21S
SLAYTON        SUNNY     58  47  66 NE8       30.21F
$$
MNZ065>067-074>077-082>085-091>093-071600-
   South Central Minnesota

CITY           SKY/WX    TMP DP  RH WIND       PRES   REMARKS
MANKATO        PTSUNNY   59  45  58 N15G22    30.18S
NEW ULM        MOSUNNY   61  45  55 NE13G18   30.18F
ST JAMES         N/A     61  48  63 N13       30.20S
FAIRMONT       MOSUNNY   59  45  58 N14       30.18S
GLENCOE        SUNNY     61  47  59 N10G17    30.18S
FARIBAULT      SUNNY     59  46  63 VRB10G20  30.17R
OWATONNA       PTSUNNY   61  46  59 NE13G18   30.16S
WASECA         PTSUNNY   59  45  58 NE13      30.18S
ALBERT LEA     PTSUNNY   59  48  67 N10       30.15S
$$
MNZ078>079-086>088-094>096-071600-
   Southeast Minnesota

CITY           SKY/WX    TMP DP  RH WIND       PRES   REMARKS
ROCHESTER      CLOUDY    59  46  62 NE16      30.15S
RED WING       PTSUNNY   63  43  48 E12       30.14S
STANTON        SUNNY     61  46  59 N13       30.15S
DODGE CENTER   PTSUNNY   57  46  67 N13       30.15S
WINONA         PTSUNNY   61  45  55 N5        30.13S
AUSTIN         PTSUNNY   61  46  59 NE12G17   30.14S
PRESTON        PTSUNNY   58  46  63 N10G20    30.14R
$$
ABBREVIATIONS USED IN REMARKS
   TC - TEMPERATURES IN CELSIUS
  WCI - WIND CHILL INDEX
   HX - HEAT INDEX
  VSB - VISIBILITY
$$



USA.gov is the U.S. government's official web portal to all federal, state and local government web resources and services.